sat.trackr.live / text

‹ back to catalog

STARLINK-11150 [DTC]

NORAD 60406 · 2024-141J

PAYLOAD ACTIVE UNKNOWN

§ Identity

Operator
Country
US
Launch date
2024-08-10
Launch site
AFETR
Launch vehicle
Mass (kg)
RCS (m²)

Purposes: comms

External: N2YO · Heavens-Above · Gunter

§ Orbital elements

Epoch: 2026-05-24T23:40:19.096896Z

Period
91.74 min
Inclination
53.1568°
Eccentricity
0.0000955
Mean motion
15.69715588 rev/d
Perigee alt
359.1 km
Apogee alt
360.4 km
Semi-major
6,737.8 km
B*
3.9055e-5
RAAN
70.3275°
Arg perigee
65.9434°
Mean anomaly
294.1684°
Rev number
10,372

§ Raw data

STARLINK-11150 [DTC]1 60406U 24141J   26144.98633214  .00004146  00000+0  39055-4 0  99912 60406  53.1568  70.3275 0000955  65.9434 294.1684 15.69715588103722

JSON: /api/v1/satellites/60406 · /tle

For live sub-satellite position, see the globe view (requires WebGL).

§ Visibility from observer

Set your observer location to see the next 7 days of passes ≥ 10°. The values pass through the URL so the page stays shareable.

No JS? Fill the form by hand. The geolocation button needs JavaScript.